CW4185 Weather Reports


time (UTC)temp
F
wind
direction
speed
knots
gust
knots
rain 1hr
in
rain 24hr
in
rain mn
in
humidity
%
barometer
mb
20260903202646 87 212 7.0 10.4 0.00 0.00 0.00 76 1013.2
20260903202146 88 196 7.8 11.3 0.00 0.00 0.00 75 1013.2
20260903201647 89 238 7.0 7.8 0.00 0.00 0.00 74 1013.2
20260903201148 89 218 4.3 7.0 0.00 0.00 0.00 74 1013.2
20260903200647 89 197 6.1 7.8 0.00 0.00 0.00 72 1013.5
20260903200147 89 190 6.1 7.0 0.00 0.00 0.00 71 1013.5
20260903195646 89 251 5.2 6.1 0.00 0.00 0.00 72 1013.2
20260903195146 89 187 3.5 6.1 0.00 0.00 0.00 72 1013.5
20260903194647 88 205 3.5 5.2 0.00 0.00 0.00 72 1013.5
20260903194147 87 255 4.3 7.8 0.00 0.00 0.00 72 1013.5
20260903193646 87 269 3.5 7.8 0.00 0.00 0.00 73 1013.5
20260903193146 86 232 4.3 9.6 0.00 0.00 0.00 75 1013.5
20260903192646 86 235 5.2 9.6 0.00 0.00 0.00 76 1013.5
20260903192146 86 224 6.1 7.8 0.00 0.00 0.00 76 1013.5
20260903191647 86 214 4.3 8.7 0.00 0.00 0.00 77 1013.5
20260903191147 87 247 4.3 8.7 0.00 0.00 0.00 76 1014.2
20260903190646 88 226 4.3 6.1 0.00 0.00 0.00 74 1013.9
20260903190147 87 209 3.5 5.2 0.00 0.00 0.00 76 1014.2
20260903185647 87 227 5.2 6.1 0.00 0.00 0.00 74 1014.2
20260903185147 87 194 3.5 6.1 0.00 0.00 0.00 73 1014.2
20260903184648 86 243 5.2 6.1 0.00 0.00 0.00 74 1014.2
20260903184147 86 184 2.6 5.2 0.00 0.00 0.00 75 1014.2
20260903183646 86 224 0.0 3.5 0.00 0.00 0.00 74 1013.9
20260903183146 88 165 6.1 7.0 0.00 0.00 0.00 71 1014.2
20260903182647 90 75 0.9 5.2 0.00 0.00 0.00 67 1014.2
20260903182147 90 42 1.7 3.5 0.00 0.00 0.00 67 1014.6
20260903181646 89 156 3.5 3.5 0.00 0.00 0.00 67 1014.6
20260903181147 89 75 2.6 3.5 0.00 0.00 0.00 68 1014.2
20260903180647 89 34 1.7 2.6 0.00 0.00 0.00 71 1014.2
20260903180146 89 302 2.6 4.3 0.00 0.00 0.00 70 1014.2
20260903175646 90 63 3.5 7.0 0.00 0.00 0.00 69 1014.6
20260903175148 89 52 5.2 6.1 0.00 0.00 0.00 70 1014.6
20260903174646 89 41 3.5 7.0 0.00 0.00 0.00 71 1014.6
20260903174147 89 4 3.5 4.3 0.00 0.00 0.00 71 1014.6
20260903173646 89 17 1.7 4.3 0.00 0.00 0.00 71 1014.6
20260903173146 88 39 1.7 9.6 0.00 0.00 0.00 72 1014.6
20260903172647 89 25 4.3 7.0 0.00 0.00 0.00 72 1014.9
20260903172147 89 42 5.2 5.2 0.00 0.00 0.00 71 1014.9
20260903171649 89 355 4.3 6.1 0.00 0.00 0.00 71 1015.2
20260903171147 89 21 0.0 5.2 0.00 0.00 0.00 72 1015.2
20260903170647 89 360 2.6 7.8 0.00 0.00 0.00 72 1015.2
20260903170146 89 60 0.9 6.1 0.00 0.00 0.00 72 1015.2
20260903165646 89 30 5.2 6.1 0.00 0.00 0.00 72 1015.2
20260903165146 88 4 3.5 4.3 0.00 0.00 0.00 72 1015.2
20260903164646 88 352 6.1 7.0 0.00 0.00 0.00 73 1015.2
20260903164147 88 338 2.6 6.1 0.00 0.00 0.00 74 1015.2
20260903163646 89 357 4.3 7.8 0.00 0.00 0.00 73 1015.6
20260903163147 88 338 3.5 6.1 0.00 0.00 0.00 73 1015.2
20260903162647 88 24 3.5 7.0 0.00 0.00 0.00 73 1015.2
20260903162148 88 47 2.6 7.0 0.00 0.00 0.00 73 1015.2
20260903161648 88 26 2.6 7.8 0.00 0.00 0.00 74 1015.6
20260903161147 88 325 0.9 6.1 0.00 0.00 0.00 75 1015.2
20260903160647 88 360 5.2 9.6 0.00 0.00 0.00 74 1015.2
20260903160149 88 1 1.7 7.0 0.00 0.00 0.00 74 1015.2
20260903155647 87 328 5.2 7.0 0.00 0.00 0.00 76 1015.6
20260903155147 87 360 3.5 5.2 0.00 0.00 0.00 77 1015.2
20260903154647 86 1 3.5 5.2 0.00 0.00 0.00 78 1015.2
20260903154147 87 62 2.6 7.8 0.00 0.00 0.00 78 1015.2
20260903153647 87 47 3.5 7.0 0.00 0.00 0.00 77 1015.2
20260903153147 86 354 1.7 5.2 0.00 0.00 0.00 78 1015.2
20260903152647 87 25 2.6 6.1 0.00 0.00 0.00 78 1015.2
20260903152146 87 18 7.0 7.0 0.00 0.00 0.00 77 1015.2
20260903151647 87 353 2.6 6.1 0.00 0.00 0.00 76 1014.9
20260903151146 88 346 2.6 6.1 0.00 0.00 0.00 76 1014.9
20260903150648 88 51 3.5 5.2 0.00 0.00 0.00 69 1015.2
20260903150146 89 70 5.2 7.0 0.00 0.00 0.00 66 1015.2
20260903145646 89 29 0.9 3.5 0.00 0.00 0.00 67 1015.2
20260903145148 88 227 1.7 3.5 0.00 0.00 0.00 70 1014.9
20260903144648 89 344 3.5 5.2 0.00 0.00 0.00 68 1014.9
20260903144148 88 302 1.7 2.6 0.00 0.00 0.00 73 1014.9
20260903143650 87 318 1.7 4.3 0.00 0.00 0.00 74 1015.2
20260903143147 87 317 2.6 3.5 0.00 0.00 0.00 72 1015.2
20260903142647 87 51 7.0 7.8 0.00 0.00 0.00 71 1015.2
20260903142147 87 357 1.7 7.0 0.00 0.00 0.00 74 1015.2
20260903141646 87 47 4.3 4.3 0.00 0.00 0.00 74 1015.2
20260903141147 87 75 2.6 4.3 0.00 0.00 0.00 74 1015.2
20260903140647 87 2 3.5 4.3 0.00 0.00 0.00 74 1015.2
20260903140147 87 357 1.7 4.3 0.00 0.00 0.00 75 1015.2
20260903135647 87 347 2.6 3.5 0.00 0.00 0.00 74 1015.2
20260903135147 86 324 0.0 3.5 0.00 0.00 0.00 75 1015.2
20260903134646 86 329 3.5 4.3 0.00 0.00 0.00 74 1015.2
20260903134147 87 53 1.7 3.5 0.00 0.00 0.00 75 1015.2
20260903133649 87 81 2.6 3.5 0.00 0.00 0.00 75 1015.2
20260903133147 86 51 2.6 4.3 0.00 0.00 0.00 76 1015.2
20260903132647 86 330 0.9 2.6 0.00 0.00 0.00 78 1015.2
20260903132147 86 331 1.7 2.6 0.00 0.00 0.00 79 1015.2
20260903131647 86 62 1.7 3.5 0.00 0.00 0.00 77 1015.2
20260903131147 86 310 0.0 0.9 0.00 0.00 0.00 78 1015.2
20260903130646 87 92 0.9 2.6 0.00 0.00 0.00 77 1015.2
20260903130147 86 262 0.0 1.7 0.00 0.00 0.00 79 1015.2
20260903125647 85 350 0.9 2.6 0.00 0.00 0.00 82 1015.2
20260903125146 84 325 0.9 2.6 0.00 0.00 0.00 85 1015.2
20260903124647 83 46 0.9 2.6 0.00 0.00 0.00 86 1014.9
20260903124146 83 300 0.9 1.7 0.00 0.00 0.00 87 1015.2
20260903123647 83 181 1.7 2.6 0.00 0.00 0.00 88 1015.2
20260903123149 82 105 0.0 2.6 0.00 0.00 0.00 90 1015.2
20260903122647 81 269 0.0 2.6 0.00 0.00 0.00 93 1015.2
20260903122147 80 323 0.9 2.6 0.00 0.00 0.00 95 1014.9
20260903121650 80 182 1.7 2.6 0.00 0.00 0.00 95 1015.2
20260903121146 79 187 1.7 2.6 0.00 0.00 0.00 96 1014.9
20260903120647 79 169 0.0 2.6 0.00 0.00 0.00 96 1014.9
20260903120147 79 269 0.0 2.6 0.00 0.00 0.00 97 1015.2
20260903115646 78 272 0.9 2.6 0.00 0.00 0.00 97 1014.9
20260903115146 78 132 1.7 2.6 0.00 0.00 0.00 97 1014.9
20260903114646 78 323 1.7 3.5 0.00 0.00 0.00 97 1014.9
20260903114149 78 84 1.7 2.6 0.00 0.00 0.00 97 1014.9
20260903113650 78 276 1.7 2.6 0.00 0.00 0.00 97 1014.9
20260903113147 78 30 0.9 2.6 0.00 0.00 0.00 97 1014.6
20260903112648 78 196 0.9 2.6 0.00 0.00 0.00 97 1014.6
20260903112147 78 271 0.9 1.7 0.00 0.00 0.00 96 1014.6
20260903111646 79 173 0.0 2.6 0.00 0.00 0.00 96 1014.2
20260903111149 79 227 0.0 1.7 0.00 0.00 0.00 96 1014.2
20260903110647 79 304 0.0 1.7 0.00 0.00 0.00 96 1014.2
20260903110146 79 315 0.0 0.9 0.00 0.00 0.00 96 1014.2
20260903105647 79 224 0.0 0.0 0.00 0.00 0.00 96 1014.2
20260903105146 79 245 0.9 0.9 0.00 0.00 0.00 96 1014.2
20260903104648 79 241 0.0 0.9 0.00 0.00 0.00 96 1014.2
20260903104146 79 242 0.9 0.9 0.00 0.00 0.00 95 1014.2
20260903103648 79 165 0.0 0.9 0.00 0.00 0.00 95 1014.2
20260903103148 79 224 0.9 0.9 0.00 0.00 0.00 95 1014.2
20260903102647 80 225 0.0 0.9 0.00 0.00 0.00 94 1014.2
20260903102146 80 230 0.9 1.7 0.00 0.00 0.00 93 1014.2
20260903101647 80 322 0.0 1.7 0.00 0.00 0.00 93 1014.2
20260903101147 80 31 0.0 1.7 0.00 0.00 0.00 93 1014.2
20260903100647 80 66 0.0 1.7 0.00 0.00 0.00 93 1014.2
20260903100146 80 58 1.7 2.6 0.00 0.00 0.00 94 1013.9
20260903095646 80 55 0.0 2.6 0.00 0.00 0.00 95 1014.2
20260903095146 80 76 0.0 0.9 0.00 0.00 0.00 95 1013.9
20260903094646 79 65 0.0 1.7 0.00 0.00 0.00 96 1013.9
20260903094146 79 123 0.0 0.9 0.00 0.00 0.00 97 1013.9
20260903093649 79 135 0.0 0.0 0.00 0.00 0.00 96 1013.9
20260903093147 79 217 0.0 0.9 0.00 0.00 0.00 97 1013.9
20260903092646 79 176 0.9 1.7 0.00 0.00 0.00 97 1013.9
20260903092146 79 137 0.0 1.7 0.00 0.00 0.00 97 1013.9
20260903091646 79 104 0.0 1.7 0.00 0.00 0.00 98 1013.9
20260903091155 79 224 0.0 0.9 0.00 0.00 0.00 97 1013.9
20260903090649 79 217 0.9 1.7 0.00 0.00 0.00 98 1014.2
20260903090147 79 202 0.0 0.9 0.00 0.00 0.00 97 1013.9
20260903085647 79 224 0.0 0.9 0.00 0.00 0.00 97 1013.9
20260903085147 79 246 0.0 0.9 0.00 0.00 0.00 97 1013.9
20260903084646 79 227 0.0 0.0 0.00 0.00 0.00 97 1014.2
20260903084146 79 230 0.0 0.9 0.00 0.00 0.00 97 1013.9
20260903083647 79 242 0.0 0.9 0.00 0.00 0.00 97 1013.9
20260903083146 79 129 0.0 0.0 0.00 0.00 0.00 97 1013.9
20260903082647 79 169 0.0 0.0 0.00 0.00 0.00 97 1013.9
20260903082146 79 44 0.0 0.0 0.00 0.00 0.00 97 1013.9
20260903081647 79 129 0.0 0.0 0.00 0.00 0.00 96 1014.2
20260903081147 79 231 0.0 0.9 0.00 0.00 0.00 96 1013.9
20260903080647 79 242 0.0 0.9 0.00 0.00 0.00 96 1013.9
20260903080147 79 216 0.9 1.7 0.00 0.00 0.00 96 1014.2
20260903075646 79 183 0.9 1.7 0.00 0.00 0.00 96 1013.9
20260903075147 80 246 0.0 0.9 0.00 0.00 0.00 96 1014.2
20260903074654 80 250 0.9 1.7 0.00 0.00 0.00 96 1014.2
20260903074146 80 224 0.0 0.9 0.00 0.00 0.00 96 1013.9
20260903073647 80 279 0.0 0.9 0.00 0.00 0.00 96 1014.2
20260903073148 80 217 0.0 0.0 0.00 0.00 0.00 95 1014.2
20260903072650 80 238 0.0 0.9 0.00 0.00 0.00 95 1013.9
20260903072147 80 227 0.0 1.7 0.00 0.00 0.00 95 1014.2
20260903071647 80 256 0.0 0.9 0.00 0.00 0.00 95 1014.2
20260903071148 80 343 0.0 0.9 0.00 0.00 0.00 96 1014.2
20260903070646 80 315 0.0 0.9 0.00 0.00 0.00 96 1014.2
20260903070148 80 217 0.0 1.7 0.00 0.00 0.00 96 1014.6
20260903065647 80 235 0.9 1.7 0.00 0.00 0.00 96 1014.6
20260903065147 80 205 0.0 1.7 0.00 0.00 0.00 96 1014.6
20260903064646 80 223 0.9 1.7 0.00 0.00 0.00 96 1014.6
20260903064146 80 204 0.9 0.9 0.00 0.00 0.00 95 1014.6
20260903063646 80 220 0.0 0.9 0.00 0.00 0.00 95 1014.6
20260903063146 80 252 0.0 0.9 0.00 0.00 0.00 95 1014.6
20260903062647 80 242 0.0 0.9 0.00 0.00 0.00 95 1014.6
20260903062146 80 222 0.9 1.7 0.00 0.00 0.00 95 1014.9
20260903061648 80 231 0.9 1.7 0.00 0.00 0.00 95 1014.9
20260903061146 80 224 0.0 0.9 0.00 0.00 0.00 95 1014.9
20260903060646 80 259 0.0 0.9 0.00 0.00 0.00 95 1014.9
20260903060152 80 233 0.0 0.0 0.00 0.00 0.00 95 1014.6
20260903055648 80 224 0.0 0.9 0.00 0.00 0.00 95 1014.9
20260903055147 80 247 0.0 0.9 0.00 0.00 0.00 95 1014.9
20260903054646 80 227 0.0 1.7 0.00 0.00 0.00 96 1014.9
20260903054146 80 205 0.0 0.0 0.00 0.00 0.00 95 1015.2
20260903053647 80 293 0.0 0.0 0.00 0.00 0.00 95 1014.9
20260903053147 80 224 0.0 0.9 0.00 0.00 0.00 95 1014.9
20260903052646 80 184 0.9 0.9 0.00 0.00 0.00 95 1014.9
20260903052146 80 216 0.0 0.9 0.00 0.00 0.00 94 1014.9
20260903051647 81 180 0.0 0.9 0.00 0.00 0.00 93 1014.9
20260903051146 81 205 0.0 0.9 0.00 0.00 0.00 93 1015.2
20260903050647 81 229 0.0 1.7 0.00 0.00 0.00 94 1015.2
20260903050147 81 249 0.9 1.7 0.00 0.00 0.00 94 1015.2
20260903045647 81 217 0.0 0.9 0.00 0.00 0.68 93 1014.9
20260903045147 81 234 0.0 0.9 0.00 0.00 0.68 93 1015.2
20260903044647 81 344 0.0 0.9 0.00 0.00 0.68 93 1015.2
20260903044146 81 212 0.0 0.0 0.00 0.00 0.68 93 1015.2
20260903043647 81 224 0.0 0.0 0.00 0.00 0.68 92 1015.2
20260903043146 81 230 0.0 0.0 0.00 0.00 0.68 92 1015.2
20260903042647 81 224 0.0 0.0 0.00 0.00 0.68 92 1015.2
20260903042146 82 224 0.0 0.0 0.00 0.00 0.68 91 1015.2
20260903041646 82 230 0.0 0.9 0.00 0.00 0.68 91 1015.2
20260903041147 82 209 0.9 1.7 0.00 0.00 0.68 91 1015.2
20260903040647 82 228 0.9 1.7 0.00 0.00 0.68 91 1015.2
20260903040146 82 228 0.0 1.7 0.00 0.00 0.68 91 1015.2
20260903035646 82 220 0.9 1.7 0.00 0.00 0.68 91 1015.2
20260903035147 82 227 0.0 1.7 0.00 0.00 0.68 91 1015.6
20260903034646 82 175 1.7 1.7 0.00 0.00 0.68 91 1015.6
20260903034147 82 199 0.9 1.7 0.00 0.00 0.68 90 1015.6
20260903033646 82 249 0.0 0.9 0.00 0.00 0.68 90 1015.2
20260903033146 82 209 0.0 0.9 0.00 0.00 0.68 89 1015.6
20260903032647 83 149 0.0 0.0 0.00 0.00 0.68 88 1015.6
20260903032146 83 89 0.0 0.9 0.00 0.00 0.68 89 1015.2
20260903031646 82 144 0.0 1.7 0.00 0.00 0.68 90 1015.6
20260903031146 82 224 0.0 0.0 0.00 0.00 0.68 90 1015.6
20260903030647 82 224 0.0 0.9 0.00 0.00 0.68 90 1015.2
20260903030148 82 171 0.9 1.7 0.00 0.00 0.68 89 1015.2
20260903025646 82 195 0.0 0.9 0.00 0.00 0.68 89 1015.2
20260903025146 83 217 0.0 0.0 0.00 0.00 0.68 89 1015.6
20260903024647 83 180 0.0 0.0 0.00 0.00 0.68 88 1015.6
20260903024146 83 180 1.7 1.7 0.00 0.00 0.68 89 1015.6
20260903023646 83 175 1.7 1.7 0.00 0.00 0.68 89 1015.2
20260903023148 83 179 0.9 1.7 0.00 0.00 0.68 88 1015.2
20260903022648 83 168 0.0 1.7 0.00 0.00 0.68 88 1015.2
20260903022146 83 201 0.9 1.7 0.00 0.00 0.68 88 1015.2
20260903021646 83 200 1.7 1.7 0.00 0.00 0.68 88 1015.2
20260903021147 83 183 0.9 1.7 0.00 0.00 0.68 87 1015.2
20260903020647 83 202 0.9 1.7 0.00 0.00 0.68 87 1015.2
20260903020147 83 184 0.9 1.7 0.00 0.00 0.68 87 1015.2
20260903015647 83 173 1.7 1.7 0.00 0.00 0.68 86 1014.9
20260903015149 83 193 0.0 1.7 0.00 0.00 0.68 86 1014.9
20260903014646 83 184 0.0 1.7 0.00 0.00 0.68 86 1014.9
20260903014147 83 180 1.7 1.7 0.00 0.00 0.68 86 1014.9
20260903013648 84 165 1.7 2.6 0.00 0.00 0.68 85 1014.9
20260903013148 84 168 1.7 2.6 0.00 0.00 0.68 85 1014.6
20260903012651 84 169 0.9 1.7 0.00 0.00 0.68 85 1014.6
20260903012147 83 161 1.7 2.6 0.00 0.00 0.68 86 1014.6
20260903011649 84 179 0.9 2.6 0.00 0.00 0.68 85 1014.6
20260903011147 84 180 0.9 1.7 0.00 0.00 0.68 84 1014.6
20260903010647 84 168 1.7 2.6 0.00 0.00 0.68 84 1014.2
20260903010148 84 187 1.7 1.7 0.00 0.00 0.68 85 1014.6
20260903005646 84 210 1.7 1.7 0.00 0.00 0.68 85 1014.2
20260903005146 84 207 1.7 1.7 0.00 0.00 0.68 84 1014.2
20260903004647 84 212 1.7 1.7 0.00 0.00 0.68 84 1014.2
20260903004146 84 196 1.7 2.6 0.00 0.00 0.68 83 1014.2
20260903003647 84 175 2.6 3.5 0.00 0.00 0.68 83 1014.2
20260903003147 84 177 1.7 2.6 0.00 0.00 0.68 83 1014.2
20260903002647 84 199 1.7 2.6 0.00 0.00 0.68 82 1014.2
20260903002147 84 167 1.7 2.6 0.00 0.00 0.68 82 1014.2
20260903001647 85 178 1.7 2.6 0.00 0.00 0.68 82 1014.2
20260903001147 85 191 2.6 3.5 0.00 0.00 0.68 82 1014.2
20260903000647 85 182 2.6 2.6 0.00 0.00 0.68 82 1014.2
20260903000146 85 214 3.5 4.3 0.00 0.00 0.68 81 1014.2
20260902235646 85 185 1.7 5.2 0.00 0.00 0.68 80 1014.2
20260902235147 85 186 2.6 5.2 0.00 0.00 0.68 81 1014.2
20260902234646 85 181 2.6 4.3 0.00 0.00 0.68 80 1014.2
20260902234146 86 213 2.6 4.3 0.00 0.00 0.68 80 1014.2
20260902233646 86 242 1.7 3.5 0.00 0.00 0.68 79 1014.2
20260902233146 86 197 2.6 3.5 0.00 0.00 0.68 79 1014.6
20260902232646 86 191 3.5 5.2 0.00 0.00 0.68 78 1014.2
20260902232147 86 194 3.5 3.5 0.00 0.00 0.68 78 1014.6
20260902231647 86 198 4.3 5.2 0.00 0.00 0.68 78 1014.2
20260902231146 86 193 2.6 3.5 0.00 0.00 0.68 77 1014.2
20260902230647 86 177 4.3 5.2 0.00 0.00 0.68 76 1014.2
20260902230146 87 169 1.7 5.2 0.00 0.00 0.68 76 1014.2
20260902225647 87 174 1.7 3.5 0.00 0.00 0.68 76 1014.2
20260902225146 87 172 4.3 6.1 0.00 0.00 0.68 76 1014.2
20260902224646 87 192 1.7 4.3 0.00 0.00 0.68 76 1014.2
20260902224147 87 237 2.6 4.3 0.00 0.00 0.68 76 1014.2
20260902223646 87 158 1.7 6.1 0.00 0.00 0.68 74 1014.2
20260902223147 87 210 4.3 5.2 0.00 0.00 0.68 74 1014.2
20260902222648 87 197 3.5 5.2 0.00 0.00 0.68 74 1014.2
20260902222147 87 208 6.1 7.8 0.00 0.00 0.68 75 1014.2
20260902221646 87 224 5.2 7.0 0.00 0.00 0.68 75 1014.6
20260902221146 87 205 3.5 5.2 0.00 0.00 0.68 74 1014.6
20260902220647 88 198 3.5 5.2 0.00 0.00 0.68 75 1014.9
20260902220146 88 254 2.6 3.5 0.00 0.00 0.68 73 1014.9
20260902215647 87 257 1.7 3.5 0.00 0.00 0.68 76 1014.6
20260902215146 86 339 0.0 2.6 0.00 0.00 0.68 75 1014.9
20260902214647 85 269 0.0 2.6 0.00 0.00 0.68 81 1014.6
20260902214150 84 337 0.0 3.5 0.00 0.00 0.68 82 1014.9
20260902213648 83 314 0.0 2.6 0.00 0.00 0.68 87 1014.9
20260902213146 82 261 1.7 2.6 0.02 0.00 0.68 90 1015.2
20260902212646 82 227 2.6 4.3 0.05 0.00 0.68 90 1014.9
20260902212146 81 274 4.3 5.2 0.02 0.00 0.67 91 1014.9
20260902211646 80 326 3.5 4.3 0.02 0.00 0.67 92 1014.9
20260902211147 80 303 2.6 4.3 0.02 0.00 0.67 91 1015.2
20260902210648 79 319 3.5 7.8 0.00 0.00 0.67 90 1014.9
20260902210147 79 299 4.3 7.8 0.02 0.00 0.67 91 1015.2
20260902205646 79 283 4.3 6.1 0.02 0.00 0.67 91 1015.6
20260902205146 78 325 0.0 4.3 0.00 0.00 0.66 92 1015.6
20260902204646 78 15 1.7 6.1 0.05 0.00 0.66 96 1015.6
20260902204147 78 289 5.2 7.8 0.12 0.00 0.66 96 1015.2
20260902203646 78 305 7.0 7.8 0.28 0.00 0.65 97 1015.6
20260902203147 78 298 7.0 10.4 0.76 0.00 0.64 97 1015.6